Home > Weather > Zwolle > Past weeks

Flag for Netherlands Past Weather in Zwolle, Netherlands — Yesterday and Last 2 Weeks

Now
57 °F

Clear.


Feels Like: 56 °F
Forecast: 60 / 66 °F
Wind: 6 mph from South

Location: Amsterdam Schiphol Airport

Current Time: Jul 26, 2016 at 4:42:40 AM

Latest Report: Jul 26, 2016 at 3:55 AM


Visibility: 10 mi

Pressure: 30.12 "Hg

Humidity: 94%

Dew Point: 55 °F

Location of ZwolleLocation

Past Weather in Zwolle — Graph

°F

Zwolle Temperature Yesterday

Maximum temperature yesterday: 72 °F (at 2:55 PM)
Minimum temperature yesterday: 59 °F (at 11:55 PM)
Average temperature yesterday: 66 °F

High & Low Weather Summary for the Past Weeks

 TemperatureHumidityPressure
High91 °F (Jul 20, 3:25 PM)100% (Jul 17, 11:25 PM)30.27 "Hg (Jul 17, 11:25 PM)
Low50 °F (Jul 14, 3:55 AM)38% (Jul 20, 2:55 PM)29.71 "Hg (Jul 11, 3:55 AM)
Average67 °F76%30.05 "Hg
* Reported Jul 11 3:25 AM — Jul 26 3:25 AM, Zwolle, Weather by CustomWeather, © 2016

Note: Actual official high and low records may vary slightly from our data, if they occured in-between our weather recording intervals... More about our weather records

Advertising

Zwolle Weather History for the Previous 24 Hours

Scroll right to see more
 ConditionsComfort  
Time TempWeatherWind HumidityBarometerVisibility
3:25 AM
Tue, Jul 26
57 °FClear.6 mph100%30.12 "Hg10 mi
2:55 AM57 °FClear.7 mph94%30.12 "Hg10 mi
2:25 AM59 °FClear.6 mph94%30.12 "Hg10 mi
1:55 AM57 °FClear.5 mph94%30.12 "Hg10 mi
1:25 AM59 °FPassing clouds.3 mph88%30.12 "HgN/A
12:55 AM59 °FClear.5 mph88%30.12 "Hg10 mi
12:25 AM61 °FClear.3 mph88%30.12 "Hg10 mi
11:55 PM
Mon, Jul 25
59 °FClear.5 mph94%30.12 "Hg10 mi
11:25 PM61 °FPassing clouds.3 mph88%30.12 "HgN/A
10:55 PM61 °FPassing clouds.3 mph88%30.12 "HgN/A
10:25 PM61 °FPassing clouds.3 mph88%30.12 "HgN/A
9:55 PM63 °FSunny.7 mph83%30.12 "Hg10 mi
9:25 PM64 °FPassing clouds.7 mph78%30.09 "HgN/A
8:55 PM64 °FPassing clouds.7 mph78%30.09 "HgN/A
8:25 PM66 °FPassing clouds.7 mph73%30.09 "HgN/A
7:55 PM66 °FScattered clouds.7 mph73%30.09 "HgN/A
7:25 PM66 °FPassing clouds.9 mph73%30.09 "HgN/A
6:55 PM66 °FPassing clouds.9 mph73%30.09 "HgN/A
6:25 PM68 °FPassing clouds.12 mph69%30.09 "HgN/A
5:55 PM68 °FPassing clouds.12 mph69%30.09 "HgN/A
5:25 PM68 °FPassing clouds.14 mph69%30.09 "HgN/A
4:55 PM70 °FPassing clouds.15 mph64%30.09 "HgN/A
4:25 PM68 °FPassing clouds.17 mph69%30.09 "HgN/A
3:55 PM70 °FPassing clouds.16 mph64%30.09 "HgN/A
3:25 PM70 °FScattered clouds.16 mph64%30.09 "HgN/A
2:55 PM72 °FPartly sunny.16 mph65%30.09 "HgN/A
2:25 PM70 °FPartly sunny.16 mph73%30.09 "HgN/A
1:55 PM70 °FBroken clouds.14 mph78%30.07 "HgN/A
1:25 PM68 °FDrizzle. Broken clouds.12 mph88%30.07 "Hg5 mi
12:55 PM66 °FBroken clouds.12 mph94%30.07 "Hg4 mi
12:25 PM68 °FDrizzle. Partly sunny.12 mph83%30.07 "Hg5 mi
11:55 AM68 °FDrizzle. Partly sunny.12 mph83%30.07 "HgN/A
11:25 AM68 °FPartly sunny.12 mph88%30.07 "HgN/A
10:55 AM68 °FDrizzle. Partly sunny.10 mph83%30.07 "HgN/A
10:25 AM68 °FPartly sunny.13 mph83%30.07 "HgN/A
9:55 AM68 °FPartly sunny.10 mph83%30.07 "HgN/A
9:25 AM68 °FBroken clouds.12 mph83%30.07 "HgN/A
8:55 AM66 °FPartly sunny.9 mph88%30.04 "HgN/A
8:25 AM66 °FPartly sunny.9 mph88%30.04 "HgN/A
7:55 AM66 °FPartly sunny.9 mph88%30.04 "HgN/A
7:25 AM66 °FPartly sunny.9 mph88%30.04 "HgN/A
6:55 AM66 °FPartly sunny.8 mph88%30.04 "HgN/A
6:25 AM66 °FPassing clouds.7 mph83%30.04 "HgN/A
5:55 AM66 °FPassing clouds.8 mph83%30.04 "HgN/A
5:25 AM63 °FPassing clouds.7 mph94%30.04 "HgN/A
4:55 AM64 °FPassing clouds.7 mph88%30.04 "HgN/A
4:25 AM64 °FPassing clouds.6 mph88%30.04 "HgN/A
Weather by CustomWeather, © 2016

See weather overviewHow to use our weather pages